QPF
0.01 0.01 0.01 0.01 0.00 0.01 0.01 0.01 0.01 0.02 0.04 0.06 0.06 0.07 0.07 0.09 0.09 0.08 0.08 0.07 0.06 0.05 0.04 0.04 0.04 0.04 0.05 0.07 0.10 0.11 0.12 0.12 0.13 0.13 0.13 0.11 0.09 0.10
0.00 0.00 0.00 0.01 0.01 0.01 0.01 0.01 0.01 0.02 0.01 0.03 0.05 0.07 0.06 0.08 0.09 0.08 0.07 0.07 0.05 0.05 0.04 0.04 0.04 0.03 0.02 0.02 0.05 0.06 0.07 0.08 0.09 0.10 0.09 0.09 0.09 0.08
0.00 0.00 0.00 0.01 0.02 0.01 0.00 0.01 0.00 0.00 0.01 0.02 0.05 0.07 0.07 0.06 0.05 0.06 0.06 0.05 0.04 0.04 0.03 0.03 0.03 0.02 0.02 0.02 0.02 0.04 0.05 0.07 0.08 0.08 0.09 0.09 0.09 0.08
0.00 0.01 0.00 0.00 0.01 0.01 0.00 0.00 0.01 0.01 0.01 0.01 0.03 0.05 0.06 0.06 0.05 0.04 0.04 0.04 0.03 0.03 0.03 0.03 0.04 0.04 0.02 0.02 0.03 0.04 0.05 0.06 0.07 0.08 0.08 0.08 0.10 0.10
0.01 0.01 0.00 0.00 0.00 0.00 0.01 0.01 0.01 0.01 0.01 0.01 0.01 0.02 0.03 0.04 0.04 0.03 0.03 0.02 0.02 0.02 0.03 0.02 0.02 0.03 0.04 0.04 0.04 0.04 0.05 0.06 0.07 0.08 0.08 0.06 0.05 0.07
0.00 0.00 0.01 0.01 0.01 0.01 0.01 0.01 0.01 0.01 0.01 0.01 0.01 0.01 0.02 0.03 0.02 0.02 0.02 0.02 0.01 0.02 0.02 0.02 0.02 0.02 0.03 0.03 0.03 0.03 0.03 0.04 0.05 0.06 0.08 0.08 0.05 0.05
0.00 0.00 0.00 0.00 0.00 0.00 0.01 0.01 0.01 0.01 0.01 0.01 0.01 0.01 0.02 0.03 0.02 0.01 0.01 0.02 0.01 0.01 0.01 0.01 0.02 0.02 0.02 0.03 0.03 0.03 0.03 0.03 0.03 0.05 0.06 0.08 0.07 0.06
0.00 0.00 0.00 0.00 0.00 0.00 0.00 0.00 0.01 0.01 0.01 0.01 0.01 0.01 0.02 0.02 0.01 0.01 0.01 0.01 0.01 0.02 0.01 0.01 0.02 0.01 0.01 0.01 0.02 0.04 0.03 0.04 0.03 0.03 0.04 0.05 0.06 0.06
0.00 0.00 0.00 0.00 0.00 0.01 0.01 0.00 0.01 0.00 0.01 0.01 0.01 0.01 0.01 0.01 0.00 0.00 0.00 0.01 0.01 0.02 0.02 0.01 0.01 0.01 0.01 0.01 0.01 0.02 0.03 0.03 0.03 0.03 0.03 0.04 0.05 0.06
0.00 0.00 0.00 0.00 0.00 0.00 0.01 0.01 0.01 0.00 0.00 0.00 0.00 0.00 0.01 0.01 0.01 0.00 0.00 0.01 0.01 0.01 0.02 0.02 0.01 0.01 0.01 0.01 0.01 0.01 0.02 0.03 0.03 0.03 0.03 0.02 0.03 0.04
0.00 0.00 0.00 0.00 0.00 0.00 0.00 0.01 0.01 0.00 0.00 0.01 0.00 0.00 0.00 0.01 0.00 0.00 0.00 0.00 0.00 0.01 0.03 0.03 0.02 0.02 0.02 0.02 0.02 0.02 0.02 0.03 0.03 0.03 0.04 0.03 0.04 0.04
0.00 0.00 0.00 0.00 0.00 0.00 0.00 0.00 0.01 0.00 0.00 0.00 0.00 0.00 0.00 0.00 0.00 0.00 0.00 0.00 0.00 0.01 0.03 0.04 0.03 0.05 0.05 0.04 0.03 0.03 0.03 0.04 0.03 0.03 0.03 0.04 0.04 0.03
0.00 0.00 0.00 0.00 0.00 0.00 0.00 0.00 0.01 0.01 0.01 0.01 0.00 0.00 0.00 0.00 0.00 0.01 0.01 0.01 0.01 0.01 0.01 0.02 0.03 0.06 0.08 0.07 0.06 0.05 0.05 0.05 0.04 0.03 0.03 0.03 0.04 0.04
0.00 0.00 0.00 0.00 0.00 0.00 0.00 0.00 0.00 0.00 0.00 0.01 0.01 0.01 0.01 0.00 0.00 0.00 0.00 0.01 0.00 0.01 0.01 0.01 0.01 0.02 0.04 0.05 0.06 0.07 0.07 0.06 0.06 0.06 0.05 0.06 0.07 0.07
0.00 0.00 0.00 0.00 0.00 0.00 0.00 0.00 0.00 0.00 0.01 0.02 0.01 0.00 0.00 0.00 0.00 0.00 0.00 0.00 0.00 0.01 0.01 0.01 0.00 0.01 0.01 0.02 0.02 0.03 0.04 0.05 0.05 0.05 0.05 0.06 0.06 0.06
0.00 0.00 0.00 0.00 0.00 0.00 0.00 0.00 0.00 0.00 0.00 0.01 0.01 0.01 0.00 0.00 0.00 0.00 0.00 0.00 0.00 0.01 0.01 0.01 0.01 0.01 0.01 0.02 0.02 0.02 0.02 0.03 0.03 0.04 0.04 0.03 0.04 0.04
0.00 0.00 0.00 0.00 0.00 0.00 0.00 0.00 0.00 0.00 0.00 0.00 0.00 0.00 0.00 0.00 0.00 0.00 0.00 0.00 0.00 0.00 0.01 0.01 0.01 0.01 0.01 0.02 0.02 0.02 0.02 0.02 0.02 0.03 0.02 0.02 0.02 0.02
0.00 0.00 0.00 0.00 0.00 0.00 0.00 0.00 0.00 0.00 0.00 0.00 0.00 0.00 0.00 0.00 0.00 0.00 0.00 0.00 0.00 0.00 0.00 0.00 0.00 0.00 0.00 0.01 0.01 0.01 0.01 0.01 0.01 0.01 0.01 0.01 0.01 0.01
0.00 0.00 0.00 0.00 0.00 0.00 0.00 0.00 0.00 0.00 0.00 0.00 0.00 0.00 0.00 0.00 0.00 0.00 0.00 0.00 0.00 0.00 0.00 0.00 0.00 0.00 0.00 0.00 0.00 0.00 0.00 0.00 0.00 0.01 0.01 0.01 0.01 0.01
0.00 0.00 0.00 0.00 0.00 0.00 0.00 0.00 0.00 0.00 0.00 0.00 0.00 0.00 0.00 0.00 0.00 0.00 0.00 0.00 0.00 0.00 0.00 0.00 0.00 0.00 0.00 0.00 0.00 0.00 0.00 0.00 0.00 0.00 0.00 0.00 0.00 0.00
0.00 0.00 0.00 0.00 0.00 0.00 0.00 0.00 0.00 0.00 0.00 0.00 0.00 0.00 0.00 0.00 0.00 0.00 0.00 0.00 0.00 0.00 0.00 0.00 0.00 0.00 0.00 0.00 0.01 0.01 0.00 0.00 0.00 0.00 0.00 0.00 0.00 0.00
0.00 0.00 0.00 0.00 0.00 0.00 0.00 0.00 0.00 0.00 0.00 0.00 0.00 0.00 0.00 0.00 0.00 0.00 0.00 0.00 0.00 0.00 0.00 0.00 0.00 0.00 0.00 0.00 0.00 0.00 0.00 0.00 0.00 0.00 0.00 0.00 0.00 0.00
0.00 0.00 0.00 0.00 0.00 0.00 0.00 0.00 0.00 0.00 0.00 0.00 0.00 0.00 0.00 0.00 0.00 0.00 0.00 0.00 0.00 0.00 0.00 0.00 0.00 0.00 0.00 0.00 0.00 0.00 0.00 0.00 0.00 0.00 0.00 0.00 0.00 0.00
MSLP
1014.24 1014.41 1014.61 1014.82 1015.01 1015.14 1015.19 1015.14 1014.99 1014.76 1014.47 1014.14 1013.81 1013.49 1013.20 1012.95 1012.74 1012.58 1012.44 1012.34 1012.27 1012.23 1012.21 1012.22 1012.25 1012.29 1012.35 1012.43 1012.53 1012.67 1012.83 1013.04 1013.31 1013.61 1013.96 1014.34 1014.72 1015.11
1014.15 1014.27 1014.43 1014.60 1014.77 1014.91 1014.99 1015.00 1014.94 1014.80 1014.60 1014.35 1014.07 1013.79 1013.51 1013.24 1013.00 1012.78 1012.60 1012.45 1012.33 1012.25 1012.20 1012.17 1012.16 1012.16 1012.18 1012.20 1012.24 1012.31 1012.42 1012.57 1012.78 1013.05 1013.36 1013.71 1014.08 1014.45
1014.02 1014.09 1014.20 1014.34 1014.48 1014.62 1014.73 1014.80 1014.81 1014.77 1014.66 1014.50 1014.29 1014.05 1013.78 1013.51 1013.25 1012.99 1012.77 1012.58 1012.42 1012.30 1012.21 1012.14 1012.09 1012.05 1012.01 1011.97 1011.95 1011.96 1012.00 1012.09 1012.25 1012.46 1012.73 1013.05 1013.39 1013.75
1013.84 1013.88 1013.95 1014.06 1014.19 1014.33 1014.46 1014.58 1014.66 1014.69 1014.67 1014.59 1014.45 1014.25 1014.02 1013.75 1013.47 1013.20 1012.95 1012.71 1012.52 1012.36 1012.23 1012.12 1012.02 1011.92 1011.83 1011.73 1011.65 1011.59 1011.57 1011.61 1011.71 1011.88 1012.11 1012.39 1012.71 1013.05
1013.60 1013.63 1013.68 1013.77 1013.89 1014.03 1014.19 1014.35 1014.48 1014.58 1014.62 1014.61 1014.53 1014.38 1014.18 1013.93 1013.66 1013.38 1013.11 1012.85 1012.62 1012.42 1012.25 1012.09 1011.94 1011.78 1011.62 1011.46 1011.32 1011.20 1011.12 1011.11 1011.16 1011.29 1011.49 1011.75 1012.05 1012.37
1013.27 1013.31 1013.37 1013.46 1013.58 1013.74 1013.91 1014.09 1014.26 1014.40 1014.50 1014.53 1014.50 1014.40 1014.24 1014.02 1013.77 1013.50 1013.23 1012.96 1012.71 1012.48 1012.26 1012.04 1011.83 1011.61 1011.38 1011.16 1010.95 1010.77 1010.65 1010.59 1010.62 1010.72 1010.91 1011.15 1011.44 1011.74
1012.85 1012.92 1012.99 1013.10 1013.23 1013.40 1013.59 1013.78 1013.97 1014.14 1014.27 1014.34 1014.35 1014.30 1014.18 1014.00 1013.79 1013.54 1013.28 1013.02 1012.76 1012.50 1012.24 1011.97 1011.69 1011.40 1011.10 1010.81 1010.54 1010.31 1010.14 1010.06 1010.06 1010.16 1010.34 1010.58 1010.86 1011.17
1012.34 1012.43 1012.54 1012.67 1012.82 1013.00 1013.19 1013.40 1013.59 1013.77 1013.92 1014.02 1014.07 1014.05 1013.98 1013.86 1013.69 1013.49 1013.26 1013.02 1012.75 1012.47 1012.17 1011.85 1011.51 1011.15 1010.78 1010.42 1010.09 1009.82 1009.62 1009.51 1009.51 1009.60 1009.78 1010.03 1010.32 1010.63
1011.75 1011.87 1012.01 1012.16 1012.34 1012.52 1012.72 1012.93 1013.13 1013.31 1013.46 1013.58 1013.65 1013.68 1013.66 1013.59 1013.48 1013.33 1013.15 1012.93 1012.67 1012.38 1012.05 1011.68 1011.28 1010.85 1010.42 1010.00 1009.62 1009.30 1009.07 1008.95 1008.94 1009.03 1009.22 1009.48 1009.78 1010.09
1011.11 1011.26 1011.43 1011.60 1011.79 1011.99 1012.20 1012.40 1012.59 1012.77 1012.92 1013.05 1013.15 1013.21 1013.23 1013.22 1013.17 1013.07 1012.93 1012.74 1012.50 1012.20 1011.85 1011.45 1010.99 1010.51 1010.02 1009.55 1009.12 1008.77 1008.52 1008.38 1008.36 1008.45 1008.65 1008.91 1009.22 1009.53
1010.48 1010.64 1010.83 1011.03 1011.24 1011.45 1011.66 1011.86 1012.04 1012.21 1012.37 1012.50 1012.61 1012.70 1012.76 1012.79 1012.78 1012.73 1012.63 1012.47 1012.24 1011.94 1011.58 1011.15 1010.66 1010.14 1009.61 1009.10 1008.64 1008.26 1007.98 1007.82 1007.79 1007.87 1008.06 1008.32 1008.62 1008.93
1009.88 1010.06 1010.26 1010.48 1010.71 1010.94 1011.16 1011.36 1011.55 1011.71 1011.87 1012.00 1012.11 1012.21 1012.29 1012.35 1012.36 1012.34 1012.26 1012.12 1011.91 1011.61 1011.24 1010.80 1010.30 1009.76 1009.20 1008.67 1008.19 1007.79 1007.49 1007.31 1007.25 1007.31 1007.47 1007.71 1007.99 1008.29
1009.35 1009.55 1009.77 1010.02 1010.27 1010.51 1010.75 1010.96 1011.15 1011.32 1011.47 1011.60 1011.71 1011.81 1011.89 1011.95 1011.97 1011.95 1011.88 1011.75 1011.54 1011.25 1010.88 1010.44 1009.94 1009.40 1008.85 1008.31 1007.82 1007.40 1007.08 1006.87 1006.77 1006.79 1006.91 1007.10 1007.35 1007.62
1008.91 1009.13 1009.37 1009.64 1009.92 1010.20 1010.46 1010.69 1010.90 1011.07 1011.22 1011.35 1011.45 1011.53 1011.60 1011.64 1011.65 1011.62 1011.54 1011.40 1011.19 1010.91 1010.55 1010.12 1009.65 1009.13 1008.60 1008.07 1007.59 1007.16 1006.81 1006.56 1006.42 1006.37 1006.42 1006.55 1006.74 1006.96
1008.56 1008.79 1009.06 1009.36 1009.68 1009.99 1010.28 1010.54 1010.77 1010.96 1011.12 1011.24 1011.34 1011.41 1011.45 1011.46 1011.44 1011.39 1011.29 1011.14 1010.92 1010.65 1010.31 1009.92 1009.47 1009.00 1008.50 1008.00 1007.53 1007.09 1006.72 1006.43 1006.22 1006.10 1006.06 1006.11 1006.23 1006.38
1008.27 1008.52 1008.82 1009.15 1009.50 1009.85 1010.18 1010.48 1010.74 1010.96 1011.14 1011.27 1011.36 1011.42 1011.44 1011.43 1011.38 1011.30 1011.18 1011.01 1010.80 1010.54 1010.23 1009.88 1009.48 1009.05 1008.60 1008.14 1007.68 1007.24 1006.84 1006.50 1006.22 1006.01 1005.88 1005.83 1005.85 1005.93
1008.02 1008.30 1008.62 1008.98 1009.35 1009.74 1010.11 1010.45 1010.76 1011.02 1011.23 1011.39 1011.49 1011.55 1011.56 1011.53 1011.47 1011.37 1011.23 1011.06 1010.86 1010.62 1010.34 1010.03 1009.69 1009.32 1008.91 1008.49 1008.05 1007.61 1007.18 1006.78 1006.43 1006.13 1005.90 1005.75 1005.67 1005.66
1007.79 1008.09 1008.43 1008.80 1009.20 1009.61 1010.02 1010.41 1010.77 1011.08 1011.34 1011.54 1011.68 1011.76 1011.78 1011.75 1011.69 1011.58 1011.45 1011.28 1011.09 1010.88 1010.65 1010.39 1010.10 1009.78 1009.42 1009.03 1008.61 1008.16 1007.71 1007.26 1006.83 1006.45 1006.12 1005.86 1005.68 1005.58
1007.57 1007.88 1008.22 1008.60 1009.02 1009.45 1009.90 1010.33 1010.74 1011.11 1011.43 1011.68 1011.87 1011.99 1012.04 1012.04 1011.99 1011.90 1011.78 1011.63 1011.47 1011.29 1011.10 1010.88 1010.64 1010.36 1010.05 1009.68 1009.28 1008.83 1008.35 1007.86 1007.38 1006.91 1006.50 1006.15 1005.88 1005.69
1007.36 1007.67 1008.01 1008.39 1008.81 1009.26 1009.73 1010.20 1010.66 1011.09 1011.46 1011.78 1012.03 1012.20 1012.30 1012.34 1012.32 1012.26 1012.16 1012.05 1011.91 1011.77 1011.61 1011.43 1011.23 1010.99 1010.70 1010.37 1009.97 1009.53 1009.03 1008.51 1007.98 1007.47 1006.99 1006.56 1006.21 1005.94
1007.15 1007.46 1007.80 1008.18 1008.60 1009.06 1009.55 1010.05 1010.55 1011.02 1011.46 1011.83 1012.14 1012.36 1012.51 1012.60 1012.62 1012.59 1012.52 1012.43 1012.33 1012.21 1012.08 1011.94 1011.76 1011.55 1011.29 1010.98 1010.60 1010.16 1009.66 1009.13 1008.58 1008.03 1007.51 1007.03 1006.62 1006.29
1006.94 1007.27 1007.62 1008.00 1008.42 1008.89 1009.39 1009.92 1010.44 1010.95 1011.43 1011.85 1012.19 1012.47 1012.66 1012.77 1012.83 1012.83 1012.79 1012.72 1012.64 1012.55 1012.44 1012.31 1012.16 1011.97 1011.73 1011.44 1011.07 1010.65 1010.17 1009.64 1009.10 1008.54 1008.00 1007.51 1007.06 1006.67
1006.75 1007.12 1007.49 1007.89 1008.33 1008.80 1009.31 1009.85 1010.39 1010.92 1011.41 1011.85 1012.22 1012.51 1012.72 1012.85 1012.92 1012.94 1012.92 1012.87 1012.80 1012.72 1012.63 1012.51 1012.38 1012.21 1011.99 1011.71 1011.37 1010.97 1010.51 1010.02 1009.49 1008.95 1008.43 1007.93 1007.47 1007.05
Thickness
5669 5669 5669 5670 5672 5674 5676 5676 5675 5674 5677 5685 5691 5698 5702 5705 5708 5710 5713 5714 5716 5718 5720 5721 5723 5724 5725 5726 5727 5727 5728 5728 5729 5729 5729 5729 5729 5729
5669 5668 5668 5669 5670 5672 5673 5675 5676 5675 5674 5680 5686 5691 5696 5700 5703 5705 5707 5709 5711 5712 5714 5716 5718 5719 5720 5721 5723 5723 5724 5725 5725 5726 5726 5726 5726 5726
5669 5668 5667 5668 5668 5669 5670 5671 5672 5673 5672 5676 5682 5686 5690 5692 5696 5698 5701 5703 5705 5707 5709 5711 5713 5714 5715 5716 5717 5719 5720 5721 5721 5722 5722 5723 5723 5723
5668 5667 5666 5667 5666 5666 5667 5668 5669 5670 5671 5671 5675 5680 5683 5687 5689 5692 5694 5697 5699 5702 5704 5706 5708 5709 5710 5711 5712 5714 5715 5716 5717 5718 5718 5719 5719 5719
5668 5666 5665 5664 5663 5664 5664 5665 5666 5668 5668 5668 5669 5673 5677 5680 5682 5685 5687 5689 5692 5695 5697 5699 5701 5703 5704 5705 5707 5708 5709 5711 5712 5712 5713 5714 5714 5715
5668 5666 5665 5664 5663 5662 5662 5662 5663 5663 5663 5664 5665 5667 5670 5673 5675 5675 5676 5680 5683 5687 5690 5692 5694 5696 5698 5700 5701 5702 5703 5705 5706 5706 5707 5708 5709 5709
5667 5665 5665 5664 5664 5662 5661 5660 5659 5658 5659 5659 5660 5661 5663 5665 5666 5667 5668 5671 5675 5678 5680 5684 5686 5688 5690 5693 5694 5696 5697 5698 5699 5700 5700 5701 5702 5702
5666 5665 5664 5664 5663 5663 5662 5661 5659 5657 5655 5655 5655 5656 5658 5660 5661 5662 5661 5662 5664 5670 5671 5674 5679 5680 5683 5685 5688 5689 5690 5691 5692 5692 5693 5694 5695 5695
5666 5664 5664 5664 5662 5660 5660 5660 5658 5658 5657 5655 5654 5654 5655 5657 5657 5656 5655 5655 5657 5662 5663 5665 5670 5672 5676 5679 5681 5682 5683 5684 5684 5685 5686 5686 5687 5687
5667 5665 5662 5662 5661 5659 5657 5655 5655 5655 5655 5655 5654 5654 5655 5655 5654 5653 5652 5652 5653 5656 5657 5657 5661 5664 5669 5672 5674 5675 5676 5676 5677 5677 5677 5678 5678 5679
5667 5665 5663 5661 5661 5659 5655 5653 5651 5652 5653 5653 5653 5652 5652 5652 5651 5648 5646 5645 5646 5648 5651 5651 5653 5656 5660 5664 5666 5667 5667 5668 5668 5668 5669 5669 5670 5670
5665 5664 5663 5662 5661 5658 5654 5651 5649 5648 5648 5648 5647 5647 5647 5646 5646 5644 5642 5640 5639 5640 5643 5644 5645 5647 5649 5654 5657 5658 5658 5659 5659 5660 5660 5661 5661 5661
5662 5661 5660 5660 5659 5656 5653 5650 5648 5646 5644 5642 5641 5640 5640 5639 5639 5639 5638 5636 5634 5634 5636 5637 5637 5638 5639 5641 5645 5647 5649 5650 5650 5651 5652 5652 5653 5652
5660 5659 5657 5657 5655 5653 5651 5649 5646 5643 5639 5637 5635 5633 5632 5632 5632 5632 5632 5631 5630 5629 5629 5630 5629 5630 5630 5632 5634 5637 5639 5640 5641 5641 5643 5644 5644 5644
5658 5656 5654 5653 5651 5648 5647 5644 5641 5637 5634 5631 5628 5627 5626 5625 5625 5625 5625 5624 5624 5623 5623 5623 5622 5622 5622 5623 5624 5626 5628 5630 5631 5631 5632 5633 5634 5634
5653 5651 5649 5647 5644 5642 5640 5637 5634 5632 5629 5626 5623 5620 5619 5618 5617 5616 5615 5615 5613 5613 5614 5614 5615 5614 5614 5615 5615 5616 5617 5618 5620 5621 5622 5624 5625 5625
5647 5643 5640 5638 5635 5633 5631 5629 5626 5624 5621 5618 5616 5613 5612 5610 5608 5608 5606 5605 5602 5601 5601 5604 5606 5606 5606 5606 5606 5606 5606 5607 5608 5609 5611 5612 5614 5614
5641 5637 5634 5631 5629 5626 5623 5621 5618 5616 5614 5611 5608 5606 5603 5602 5600 5598 5596 5594 5592 5591 5591 5591 5593 5594 5595 5596 5596 5595 5595 5595 5597 5598 5599 5600 5603 5604
5634 5631 5628 5625 5622 5619 5617 5614 5611 5608 5606 5604 5601 5598 5595 5593 5591 5588 5586 5584 5583 5581 5580 5580 5580 5580 5579 5580 5583 5584 5583 5584 5585 5586 5586 5587 5590 5594
5628 5625 5622 5619 5616 5613 5610 5607 5603 5600 5598 5595 5592 5589 5586 5584 5581 5578 5575 5574 5572 5571 5570 5569 5568 5568 5567 5567 5570 5572 5572 5571 5572 5573 5574 5577 5579 5583
5620 5618 5616 5613 5610 5606 5603 5599 5596 5593 5589 5586 5583 5580 5577 5574 5570 5568 5565 5564 5562 5560 5558 5557 5557 5558 5558 5558 5558 5559 5559 5559 5559 5558 5561 5562 5565 5568
5614 5611 5609 5606 5603 5599 5595 5591 5587 5584 5580 5576 5573 5570 5567 5564 5560 5557 5555 5552 5550 5548 5548 5547 5547 5547 5546 5545 5544 5545 5547 5548 5548 5547 5547 5547 5547 5551
5607 5604 5601 5598 5595 5591 5587 5583 5579 5575 5571 5567 5563 5560 5557 5553 5550 5547 5544 5542 5540 5538 5537 5535 5534 5533 5532 5532 5531 5532 5534 5535 5535 5535 5535 5535 5535 5538